CZ-4 DEB, 35330

Orbit data source: Space-Track

CZ-4 DEB, 35330 is space debris in SSO originally from a launch on Thu, 14 Oct 1999 UTC launched from the Taiyaun Space Center, China (TSC). Debris objects in space refer to the collection of defunct objects orbiting the Earth. Examples of debris include non-operational satellites, rocket bodies, and fragments generated from explosions, collisions, or faulty payload assembly.

Loading next visibility...
Identifier
35330, 1999-057SJ
Orbit
SSO
Country
Flag of CNCN / PRC
Related business
Manufacturer
Unknown
Mission
Spacecraft
Bus & Motor
Unknown
Mass
Unknown
Launch date (UTC)
1999-10-14 (26 years ago)
Launch vehicle
Unknown
Launch site
Taiyaun Space Center, China (TSC)
Object type
Payload
Rocket body
Debris
Shape & HBR
Unknown shape, 0.1 m
Radar Cross Section
Small (<0.1 m²)

Expand to show TLE details & history
Last TLE update: 8 hours ago

TLE from 8 hours ago
0 CZ-4 DEB
1 35330U 99057SJ  25289.06339931  .00001089  00000-0  32343-3 0  9990
2 35330  98.6825 330.7165 0081578  30.4400 330.1489 14.43442069185413
Epoch: 2025-10-16T01:31Z
TLE epoch observation values (Epoch: 2025-10-16T01:31:17.700Z)
Latitude
-0.00002°
Longitude
-76.93575°
Altitude
699.79 km
Speed
7.533 km/s
True Right ascension
22h 02m 51s
True Declination
0° 00' 00"
Sunlit
Object was in full shadow at epoch
Visualization orbit readout
Latitude
Unknown
Longitude
Unknown
Altitude
Unknown
Speed
Unknown
Apparent Right ascension
Unknown
Apparent Declination
Unknown
Sunlit
N/A
Visualization observer readout
Local Sidereal Time
04:00:28
Azimuth
Unknown
Elevation
Unknown
Doppler factor
Unknown
Orbital elements
Apogee altitude
802.377 km
Perigee altitude
686.171 km
Semi-major axis
7,122.411 km
Eccentricity
0.00816
Inclination
98.6825°
RAAN
330.7165°
Arg. of periapsis
30.44°
True anomaly
329.67945°
Mean anomaly
330.1489°
Eccentric anomaly
329.91459°
Mean motion
3.61079 °/min
Orbital period
99.7 mins
BSTAR
0.00032343
Loading maneuver chart data...
Computing Atmospheric mass density...
Loading historical data...
Loading historical data...
Loading historical data...
Loading historical data...
Loading historical data...
Loading historical data...
Loading historical data...

Documentation

Showing up to 5 results
|